This is the latest recevied weather packets stored in our database for station/object KC8JWT. If no packets are shown the sender has not sent any weather packets the latest 1 day(s).
| Time | Temp. | Humidity | Pressure | Rain* | Wind** | Luminosity | Snow |
|---|---|---|---|---|---|---|---|
| 1778015834 | 23.89° C | 54% | 1008.8 hPa | 0 mm | 1.34 m/s, 103° | 287 W/m² | - |
| 1778015531 | 23.89° C | 55% | 1008.7 hPa | 0 mm | 2.24 m/s, 242° | 186 W/m² | - |
| 1778015228 | 23.33° C | 55% | 1008.9 hPa | 0 mm | 3.13 m/s, 189° | 181 W/m² | - |
| 1778014925 | 23.89° C | 55% | 1009.2 hPa | 0 mm | 2.24 m/s, 317° | 214 W/m² | - |
| 1778014622 | 23.89° C | 54% | 1008.8 hPa | 0 mm | 3.13 m/s, 198° | 240 W/m² | - |
| 1778014320 | 24.44° C | 53% | 1008.9 hPa | 0 mm | 1.34 m/s, 189° | 249 W/m² | - |
| 1778014016 | 24.44° C | 53% | 1009 hPa | 0 mm | 3.13 m/s, 224° | 286 W/m² | - |
| 1778013715 | 24.44° C | 53% | 1008.8 hPa | 0 mm | 2.24 m/s, 300° | 313 W/m² | - |
| 1778013411 | 24.44° C | 53% | 1009 hPa | 0 mm | 2.68 m/s, 214° | 330 W/m² | - |
| 1778013108 | 24.44° C | 53% | 1009 hPa | 0 mm | 2.68 m/s, 154° | 335 W/m² | - |
| 1778012803 | 24.44° C | 54% | 1008.9 hPa | 0 mm | 2.24 m/s, 201° | 298 W/m² | - |
| 1778012500 | 24.44° C | 53% | 1009 hPa | 0 mm | 2.24 m/s, 156° | 315 W/m² | - |
| 1778012197 | 24.44° C | 54% | 1009.1 hPa | 0 mm | 2.24 m/s, 226° | 340 W/m² | - |
| 1778011895 | 24.44° C | 54% | 1009.1 hPa | 0 mm | 2.68 m/s, 98° | 354 W/m² | - |
| 1778011592 | 24.44° C | 53% | 1009.3 hPa | 0 mm | 4.92 m/s, 214° | 392 W/m² | - |
| 1778011289 | 24.44° C | 53% | 1009.3 hPa | 0 mm | 4.02 m/s, 182° | 438 W/m² | - |
| 1778010985 | 23.89° C | 54% | 1009.6 hPa | 0 mm | 4.47 m/s, 238° | 382 W/m² | - |
| 1778010683 | 24.44° C | 53% | 1009.3 hPa | 0 mm | 2.24 m/s, 164° | 354 W/m² | - |
| 1778010380 | 24.44° C | 53% | 1009.3 hPa | 0 mm | 2.24 m/s, 164° | 400 W/m² | - |
| 1778010076 | 24.44° C | 54% | 1009.3 hPa | 0 mm | 3.13 m/s, 166° | 389 W/m² | - |
| 1778009773 | 24.44° C | 54% | 1009.5 hPa | 0 mm | 4.02 m/s, 224° | 426 W/m² | - |
| 1778009470 | 24.44° C | 54% | 1009.5 hPa | 0 mm | 3.58 m/s, 208° | 406 W/m² | - |
| 1778009169 | 24.44° C | 52% | 1009.6 hPa | 0 mm | 3.58 m/s, 201° | 398 W/m² | - |
| 1778008866 | 24.44° C | 54% | 1009.8 hPa | 0 mm | 1.34 m/s, 275° | 392 W/m² | - |
| 1778008564 | 25° C | 53% | 1009.9 hPa | 0 mm | 2.24 m/s, 185° | 391 W/m² | - |
* Rain latest hour (hover to see other rain measurements)
** Current wind speed in m/s (hover to see current wind gust speed)